FW7011 Weather Reports


time (UTC)temp
C
wind
direction
speed
KPH
gust
KPH
rain 1hr
cm
rain 24hr
cm
rain mn
cm
humidity
%
barometer
mb
20260504130522 14 217 0.0 3.2 0.00 0.00 0.00 57 1018.2
20260504110410 4 120 6.4 6.4 0.00 0.00 0.00 90 1017.9
20260504100326 3 125 4.8 9.7 0.00 0.00 0.00 89 1017.7
20260504081720 3 117 9.7 11.3 0.00 0.00 0.00 84 1017.7
20260504081216 3 108 8.0 9.7 0.00 0.00 0.00 85 1017.9
20260504080712 3 117 8.0 8.0 0.00 0.00 0.00 84 1018.2
20260504080209 3 100 4.8 6.4 0.00 0.00 0.00 87 1018.1
20260504070137 4 114 9.7 9.7 0.00 0.00 0.00 84 1018.0
20260504050525 5 108 6.4 8.0 0.00 0.00 0.00 84 1018.2
20260504050023 5 109 4.8 8.0 0.00 0.00 0.00 83 1018.1
20260504045519 5 102 4.8 8.0 0.00 0.00 0.00 84 1018.1
20260504045015 5 120 3.2 3.2 0.00 0.00 0.00 82 1017.9
20260504044512 5 44 6.4 6.4 0.00 0.00 0.00 83 1018.1
20260504044009 5 107 4.8 8.0 0.00 0.00 0.00 82 1018.1
20260504043506 6 124 4.8 8.0 0.00 0.00 0.00 80 1018.0
20260504043004 6 108 4.8 8.0 0.00 0.00 0.00 81 1017.8
20260504042500 6 100 3.2 6.4 0.00 0.00 0.00 81 1018.0
20260504041957 6 108 6.4 8.0 0.00 0.00 0.00 80 1018.0
20260504041453 6 105 6.4 9.7 0.00 0.00 0.00 80 1017.9
20260504040949 6 120 4.8 8.0 0.00 0.00 0.00 80 1017.9
20260504040447 6 119 6.4 9.7 0.00 0.00 0.00 80 1018.0
20260504035943 6 112 4.8 6.4 0.00 0.00 0.00 78 1018.1
20260504035441 6 115 6.4 8.0 0.00 0.00 0.00 79 1017.9
20260504034937 6 120 6.4 8.0 0.00 0.00 0.00 78 1018.0
20260504034435 6 104 1.6 4.8 0.00 0.00 0.00 76 1018.1
20260504033931 8 113 6.4 11.3 0.00 0.00 0.00 69 1017.8
20260504033429 8 89 8.0 12.9 0.00 0.00 0.00 66 1017.7
20260504032926 7 108 9.7 9.7 0.00 0.00 0.00 77 1018.0
20260504032423 6 105 9.7 11.3 0.00 0.00 0.00 77 1017.6
20260504031920 7 101 11.3 11.3 0.00 0.00 0.00 69 1017.7
20260504031417 6 107 8.0 9.7 0.00 0.00 0.00 76 1017.7
20260504030913 7 113 8.0 9.7 0.00 0.00 0.00 74 1018.1
20260504030410 7 108 9.7 11.3 0.00 0.00 0.00 75 1018.3
20260504025906 7 117 8.0 8.0 0.00 0.00 0.00 74 1018.2
20260504025403 8 98 6.4 6.4 0.00 0.00 0.00 72 1018.3
20260504024900 8 111 6.4 8.0 0.00 0.00 0.00 68 1018.3
20260504024356 8 99 1.6 4.8 0.00 0.00 0.00 68 1018.0
20260504023854 8 112 1.6 3.2 0.00 0.00 0.00 68 1018.1
20260504023350 8 100 3.2 8.0 0.00 0.00 0.00 68 1017.9
20260504022846 8 66 3.2 3.2 0.00 0.00 0.00 70 1017.8
20260504022343 8 114 9.7 12.9 0.00 0.00 0.00 70 1017.8
20260504021839 8 117 8.0 11.3 0.00 0.00 0.00 70 1017.9
20260504021337 8 114 9.7 11.3 0.00 0.00 0.00 67 1017.9
20260504020834 8 109 9.7 11.3 0.00 0.00 0.00 68 1017.8
20260504020331 8 110 9.7 11.3 0.00 0.00 0.00 68 1017.9
20260504015826 9 125 11.3 11.3 0.00 0.00 0.00 67 1017.8
20260504015323 10 115 9.7 11.3 0.00 0.00 0.00 64 1017.8
20260504014819 10 115 8.0 8.0 0.00 0.00 0.00 63 1017.4
20260504014315 11 111 8.0 9.7 0.00 0.00 0.00 56 1017.6
20260504013813 10 75 4.8 6.4 0.00 0.00 0.00 52 1017.3
20260504013311 10 109 8.0 11.3 0.00 0.00 0.00 61 1017.1
20260504012807 10 127 8.0 11.3 0.00 0.00 0.00 61 1017.1
20260504012305 11 127 9.7 11.3 0.00 0.00 0.00 60 1017.4
20260504011802 12 116 4.8 6.4 0.00 0.00 0.00 47 1017.1
20260504011259 12 32 4.8 6.4 0.00 0.00 0.00 50 1017.0
20260504010754 11 63 6.4 6.4 0.00 0.00 0.00 52 1017.1
20260504010250 11 78 4.8 6.4 0.00 0.00 0.00 50 1016.9
20260504005747 11 94 6.4 8.0 0.00 0.00 0.00 54 1017.0
20260504005244 11 104 8.0 9.7 0.00 0.00 0.00 54 1016.8
20260504004742 11 94 8.0 9.7 0.00 0.00 0.00 54 1016.6
20260504004239 11 102 8.0 9.7 0.00 0.00 0.00 53 1016.5
20260504003735 12 106 8.0 9.7 0.00 0.00 0.00 53 1016.8
20260504003232 12 99 8.0 8.0 0.00 0.00 0.00 51 1016.7
20260504002729 12 111 6.4 9.7 0.00 0.00 0.00 51 1016.8
20260504002226 12 98 8.0 8.0 0.00 0.00 0.00 49 1016.7
20260504001724 13 105 6.4 8.0 0.00 0.00 0.00 47 1016.9
20260504001220 13 101 6.4 8.0 0.00 0.00 0.00 46 1016.7
20260504000717 14 93 4.8 8.0 0.00 0.00 0.00 43 1016.6
20260504000214 14 109 6.4 6.4 0.00 0.00 0.00 42 1016.5
20260503235713 15 111 6.4 6.4 0.00 0.00 0.00 41 1016.5
20260503235209 15 124 4.8 6.4 0.00 0.00 0.00 39 1016.7
20260503234707 16 115 3.2 4.8 0.00 0.00 0.00 38 1016.6
20260503234205 16 115 0.0 3.2 0.00 0.00 0.00 35 1016.5
20260503233701 16 121 3.2 6.4 0.00 0.00 0.00 36 1016.6
20260503233157 17 183 3.2 6.4 0.00 0.00 0.00 34 1016.4
20260503232654 17 144 4.8 8.0 0.00 0.00 0.00 33 1016.2
20260503232151 18 125 3.2 4.8 0.00 0.00 0.00 30 1016.4
20260503231650 19 126 3.2 6.4 0.00 0.00 0.00 32 1016.2
20260503231145 18 170 0.0 3.2 0.00 0.00 0.00 29 1016.2
20260503230642 19 91 3.2 3.2 0.00 0.00 0.00 30 1016.2
20260503230139 18 109 1.6 11.3 0.00 0.00 0.00 31 1016.0
20260503225637 19 118 4.8 4.8 0.00 0.00 0.00 30 1016.4
20260503225136 19 122 3.2 6.4 0.00 0.00 0.00 29 1016.2
20260503224634 19 267 3.2 8.0 0.00 0.00 0.00 29 1016.5
20260503224132 19 48 3.2 8.0 0.00 0.00 0.00 25 1016.1
20260503223630 18 262 3.2 8.0 0.00 0.00 0.00 27 1016.6
20260503223126 20 253 1.6 4.8 0.00 0.00 0.00 30 1016.5
20260503222623 20 94 6.4 6.4 0.00 0.00 0.00 28 1016.2
20260503222121 20 166 1.6 8.0 0.00 0.00 0.00 29 1016.5
20260503221619 19 130 6.4 6.4 0.00 0.00 0.00 27 1016.5
20260503221116 20 41 6.4 8.0 0.00 0.00 0.00 29 1016.2
20260503220613 19 240 11.3 14.5 0.00 0.00 0.00 26 1016.4
20260503220109 20 198 4.8 14.5 0.00 0.00 0.00 27 1016.5
20260503215607 20 279 4.8 6.4 0.00 0.00 0.00 24 1016.5
20260503215103 18 233 11.3 12.9 0.00 0.00 0.00 26 1016.8
20260503214602 20 192 4.8 4.8 0.00 0.00 0.00 29 1016.6
20260503214058 19 277 9.7 12.9 0.00 0.00 0.00 26 1016.8
20260503213556 18 196 3.2 11.3 0.00 0.00 0.00 25 1016.8
20260503213053 18 259 11.3 14.5 0.00 0.00 0.00 26 1017.0
20260503212550 20 282 4.8 11.3 0.00 0.00 0.00 25 1016.9
20260503212047 20 175 1.6 11.3 0.00 0.00 0.00 25 1016.8
20260503211545 20 130 4.8 8.0 0.00 0.00 0.00 26 1017.0
20260503211040 19 102 3.2 9.7 0.00 0.00 0.00 29 1017.0
20260503210537 19 350 3.2 9.7 0.00 0.00 0.00 29 1017.1
20260503210032 18 248 11.3 16.1 0.00 0.00 0.00 28 1017.2
20260503205529 18 258 4.8 11.3 0.00 0.00 0.00 27 1017.1
20260503205026 18 241 6.4 17.7 0.00 0.00 0.00 25 1017.0
20260503204523 18 26 3.2 12.9 0.00 0.00 0.00 26 1016.9
20260503204020 18 346 3.2 9.7 0.00 0.00 0.00 26 1017.0
20260503203517 18 195 3.2 14.5 0.00 0.00 0.00 24 1017.2
20260503203014 18 278 4.8 12.9 0.00 0.00 0.00 29 1017.6
20260503202512 18 257 8.0 20.9 0.00 0.00 0.00 27 1017.5
20260503202010 18 244 12.9 20.9 0.00 0.00 0.00 25 1017.2
20260503201508 17 277 9.7 14.5 0.00 0.00 0.00 27 1017.6
20260503201005 17 244 9.7 25.7 0.00 0.00 0.00 26 1017.6
20260503200501 17 237 9.7 14.5 0.00 0.00 0.00 26 1017.7
20260503195957 18 341 11.3 11.3 0.00 0.00 0.00 26 1017.6
20260503195455 18 269 4.8 11.3 0.00 0.00 0.00 28 1017.8
20260503194951 18 305 4.8 8.0 0.00 0.00 0.00 32 1017.7
20260503194449 18 259 11.3 14.5 0.00 0.00 0.00 25 1018.1
20260503193943 17 196 4.8 11.3 0.00 0.00 0.00 27 1018.0
20260503193439 17 34 3.2 16.1 0.00 0.00 0.00 26 1018.2
20260503192935 17 249 3.2 6.4 0.00 0.00 0.00 32 1018.1
20260503192432 17 214 8.0 8.0 0.00 0.00 0.00 27 1017.9
20260503191927 17 251 3.2 8.0 0.00 0.00 0.00 27 1018.3
20260503191425 17 210 1.6 8.0 0.00 0.00 0.00 28 1018.4
20260503190921 17 330 6.4 9.7 0.00 0.00 0.00 32 1018.4
20260503190419 16 274 4.8 14.5 0.00 0.00 0.00 29 1018.6
20260503185915 16 206 6.4 8.0 0.00 0.00 0.00 28 1018.5
20260503185412 16 192 11.3 17.7 0.00 0.00 0.00 27 1018.5
20260503184911 16 6 6.4 11.3 0.00 0.00 0.00 27 1018.5
20260503184408 17 286 6.4 6.4 0.00 0.00 0.00 29 1018.7
20260503183904 16 247 4.8 8.0 0.00 0.00 0.00 28 1018.9
20260503183401 16 313 14.5 17.7 0.00 0.00 0.00 27 1018.9
20260503182858 16 230 17.7 22.5 0.00 0.00 0.00 30 1019.0
20260503182357 16 261 4.8 14.5 0.00 0.00 0.00 27 1019.3
20260503181854 15 301 4.8 12.9 0.00 0.00 0.00 27 1019.4
20260503181351 15 239 17.7 20.9 0.00 0.00 0.00 26 1019.4
20260503180847 16 327 6.4 16.1 0.00 0.00 0.00 30 1019.3
20260503180345 15 259 8.0 9.7 0.00 0.00 0.00 28 1019.4
20260503175841 15 255 4.8 16.1 0.00 0.00 0.00 30 1019.4
20260503175340 15 232 19.3 29.0 0.00 0.00 0.00 29 1019.5
20260503174835 15 280 12.9 17.7 0.00 0.00 0.00 30 1019.5
20260503174333 14 128 6.4 6.4 0.00 0.00 0.00 36 1019.6
20260503173828 14 261 8.0 8.0 0.00 0.00 0.00 36 1019.6
20260503173325 14 277 6.4 9.7 0.00 0.00 0.00 30 1019.9
20260503172822 14 252 11.3 12.9 0.00 0.00 0.00 31 1019.9
20260503172320 14 253 8.0 25.7 0.00 0.00 0.00 31 1020.1
20260503171815 15 257 14.5 20.9 0.00 0.00 0.00 31 1019.9
20260503171312 15 309 4.8 9.7 0.00 0.00 0.00 37 1020.0
20260503170809 13 293 11.3 14.5 0.00 0.00 0.00 34 1020.1
20260503170306 13 254 12.9 16.1 0.00 0.00 0.00 34 1020.0
20260503150658 11 37 11.3 14.5 0.00 0.00 0.00 38 1021.4
20260503150154 11 341 11.3 14.5 0.00 0.00 0.00 39 1021.3
20260503140119 10 358 6.4 8.0 0.00 0.00 0.00 43 1021.4
20260503131048 8 21 8.0 9.7 0.00 0.00 0.00 49 1021.1